EW5495 Fig Tree Pocket AU current weather conditions

sailwx.info

Last reported at 2020-Jan-26 07:00 UTC.
Time now 2020-Jan-26 07:53 UTC

Location: S 27°32' E 152°58'.
View on Google Maps.

See reports from other nearby stations

  
Tides and Currents Weather Stations Pressure Air Temp Water Temp Dewpoint Dewpoint Depression Visibility Wind Speed Wind Dir Waves Ship Positions
date/time (UTC)wind fromknots sea level pressurealtimeterstation pressurevisibilityair tempwater tempwave heightnotes
2020-Jan-26 07:00
2020-Jan-26 06:55
2020-Jan-26 06:49 052 3 gusting 10 29.4
2020-Jan-26 06:45
2020-Jan-26 06:40
2020-Jan-26 06:31 035 3 gusting 12 30.0
2020-Jan-26 06:25
2020-Jan-26 06:15
2020-Jan-26 06:10
2020-Jan-26 06:05
2020-Jan-26 06:00
2020-Jan-26 05:55
2020-Jan-26 05:50
2020-Jan-26 05:45
2020-Jan-26 05:40
2020-Jan-26 05:35
2020-Jan-26 05:30
2020-Jan-26 05:25
2020-Jan-26 05:20
2020-Jan-26 05:15
2020-Jan-26 05:10
2020-Jan-26 05:05
2020-Jan-26 05:00
2020-Jan-26 04:52 094 3 gusting 13 31.1
2020-Jan-26 04:50
2020-Jan-26 04:45
2020-Jan-26 04:40
2020-Jan-26 04:35
2020-Jan-26 04:30
2020-Jan-26 04:25
2020-Jan-26 04:20
2020-Jan-26 04:15
2020-Jan-26 04:10
2020-Jan-26 04:05
2020-Jan-26 04:00
2020-Jan-26 03:55
2020-Jan-26 03:50
2020-Jan-26 03:45
2020-Jan-26 03:40
2020-Jan-26 03:35
2020-Jan-26 03:22 065 2 gusting 6 30.0
2020-Jan-26 03:20 229 2 gusting 0 23.9
2020-Jan-26 03:15 229 2 gusting 0 23.9
2020-Jan-26 03:10 229 2 gusting 0 23.9
2020-Jan-26 03:05 229 2 gusting 0 23.9
2020-Jan-26 03:00 229 2 gusting 0 23.9
2020-Jan-26 02:55 229 2 gusting 0 23.9
2020-Jan-26 02:50 229 2 gusting 0 23.9
2020-Jan-26 02:45 229 2 gusting 0 23.9
2020-Jan-26 02:40 229 2 gusting 0 23.9
2020-Jan-26 02:35 229 2 gusting 0 23.9
2020-Jan-26 02:30 229 2 gusting 0 23.9
2020-Jan-26 02:25 229 2 gusting 0 23.9
2020-Jan-26 02:20 229 2 gusting 0 23.9
2020-Jan-26 02:15 229 2 gusting 0 23.9
2020-Jan-26 02:10 229 2 gusting 0 23.9
2020-Jan-26 02:05 229 2 gusting 0 23.9
2020-Jan-26 02:00 229 2 gusting 0 23.9
2020-Jan-26 01:55 229 2 gusting 0 23.9
2020-Jan-26 01:50 229 2 gusting 0 23.9
2020-Jan-26 01:45 257 0 gusting 0 23.9
2020-Jan-26 01:40 296 2 gusting 0 23.9
2020-Jan-26 01:35 263 0 gusting 0 23.9
2020-Jan-26 01:30 269 23.9
2020-Jan-26 01:25 297 4 gusting 0 23.9
2020-Jan-26 01:20 243 0 24.4
2020-Jan-26 01:15 126 24.4
2020-Jan-26 01:10 189 24.4
2020-Jan-26 01:05 219 1 gusting 0 24.4
2020-Jan-26 01:00 187 0 gusting 0 24.4
2020-Jan-26 00:55 100 0 gusting 0 25.0
2020-Jan-26 00:50 135 2 25.6
2020-Jan-26 00:45 101 0 25.6
2020-Jan-26 00:40 301 25.6
2020-Jan-26 00:35 301 25.6
2020-Jan-26 00:30 301 25.6
2020-Jan-26 00:25 301 25.6
2020-Jan-26 00:20 301 25.6
2020-Jan-26 00:15 301 25.0
2020-Jan-26 00:10 301 25.0
2020-Jan-26 00:05 301 25.0
2020-Jan-26 00:00 301 25.0
2020-Jan-25 23:55 301 25.0
2020-Jan-25 23:50 301 25.0
2020-Jan-25 23:45 301 25.0
2020-Jan-25 23:40 301 25.0
2020-Jan-25 23:35 301 25.0
2020-Jan-25 23:30 301 25.0
2020-Jan-25 23:25 260 25.0
2020-Jan-25 23:20 267 25.0
2020-Jan-25 23:15 271 0 25.6
2020-Jan-25 23:10 301 25.6
2020-Jan-25 23:05 301 0 gusting 0 25.6
2020-Jan-25 23:00 331 5 gusting 0 25.6
2020-Jan-25 22:55 245 9 gusting 0 26.1
2020-Jan-25 22:50 208 1 26.7
2020-Jan-25 22:45 196 2 26.7
2020-Jan-25 22:40 119 26.7
2020-Jan-25 22:35 123 26.7
2020-Jan-25 22:30 167 26.7
2020-Jan-25 22:25 167 26.7
2020-Jan-25 22:20 167 26.7
2020-Jan-25 22:15 167 26.7
2020-Jan-25 22:10 167 26.7
2020-Jan-25 22:05 140 26.1
2020-Jan-25 22:00 140 26.1
2020-Jan-25 21:55 140 26.1
2020-Jan-25 21:50 140 26.1
2020-Jan-25 21:45 140 26.1
2020-Jan-25 21:40 140 26.1
2020-Jan-25 21:35 140 25.6
2020-Jan-25 21:30 140 25.6
2020-Jan-25 21:25 140 25.6
2020-Jan-25 21:20 140 25.6
2020-Jan-25 21:15 140 25.6
2020-Jan-25 21:10 140 25.6
2020-Jan-25 21:05 140 25.6
2020-Jan-25 21:00 140 25.6
2020-Jan-25 20:55 140 25.6
2020-Jan-25 20:50 140 25.6
2020-Jan-25 20:45 140 25.6
2020-Jan-25 20:40 140 25.6
2020-Jan-25 20:35 140 25.6
2020-Jan-25 20:30 140 25.0
2020-Jan-25 20:25 140 25.0
2020-Jan-25 20:20 140 25.0
2020-Jan-25 20:15 140 25.0
2020-Jan-25 20:10 140 25.0
2020-Jan-25 20:05 140 25.0
2020-Jan-25 20:00 140 25.0
2020-Jan-25 19:55 140 25.0
2020-Jan-25 19:50 140 25.0
2020-Jan-25 19:45 140 25.0
2020-Jan-25 19:40 140 25.0
2020-Jan-25 19:35 140 25.0
2020-Jan-25 19:30 140 25.0
2020-Jan-25 19:25 140 25.0
2020-Jan-25 19:20 140 25.0
2020-Jan-25 19:15 140 25.0
2020-Jan-25 19:10 140 25.0
2020-Jan-25 19:05 140 25.0
2020-Jan-25 19:00 140 25.0
2020-Jan-25 18:55 140 25.0
2020-Jan-25 18:50 140 25.0
2020-Jan-25 18:45 140 25.0
2020-Jan-25 18:40 140 25.0
2020-Jan-25 18:35 140 25.0
2020-Jan-25 18:30 140 25.0
2020-Jan-25 18:25 140 25.0
2020-Jan-25 18:20 140 25.0
2020-Jan-25 18:15 140 25.0
2020-Jan-25 18:10 140 25.0
2020-Jan-25 18:05 140 25.0
2020-Jan-25 18:00 128 25.0
2020-Jan-25 17:55 23.9
2020-Jan-25 17:50 129 25.0
2020-Jan-25 17:45 126 25.6
2020-Jan-25 17:40 172 25.6
2020-Jan-25 17:35 265 25.6
2020-Jan-25 17:30 265 25.6
2020-Jan-25 17:25 265 25.6
2020-Jan-25 17:20 265 25.6
2020-Jan-25 17:15 265 25.6
2020-Jan-25 17:10 24.4
2020-Jan-25 17:05 265 25.6
2020-Jan-25 17:00 265 25.6
2020-Jan-25 16:55 265 25.6
2020-Jan-25 16:50 265 25.6
2020-Jan-25 16:45 265 25.6
2020-Jan-25 16:40 265 25.6
2020-Jan-25 16:35 265 25.6
2020-Jan-25 16:30 265 25.6
2020-Jan-25 16:25 265 25.6
2020-Jan-25 16:20 265 25.6
2020-Jan-25 16:15 265 25.6
2020-Jan-25 16:10 265 25.6
2020-Jan-25 16:05 265 25.6
2020-Jan-25 16:00 265 0 25.6
2020-Jan-25 15:55 158 25.6
2020-Jan-25 15:50 158 25.6
2020-Jan-25 15:45 158 25.6
2020-Jan-25 15:40 24.4
2020-Jan-25 15:35 158 25.6
2020-Jan-25 15:30 158 25.6
2020-Jan-25 15:25 158 25.6
2020-Jan-25 15:20 158 25.6
2020-Jan-25 15:15 158 25.6
2020-Jan-25 15:10 158 25.6
2020-Jan-25 15:05 199 25.6
2020-Jan-25 15:00 075 26.1
2020-Jan-25 14:55 066 26.1
2020-Jan-25 14:50 126 26.1
2020-Jan-25 14:45 121 0 26.1
2020-Jan-25 14:40 132 0 26.1
2020-Jan-25 14:35 132 26.1
2020-Jan-25 14:30 132 26.1
2020-Jan-25 14:25 132 26.1
2020-Jan-25 14:20 132 26.1
2020-Jan-25 14:15 132 26.1
2020-Jan-25 14:10 25.6
2020-Jan-25 14:05 132 0 gusting 0 26.7
2020-Jan-25 14:00 138 7 gusting 0 26.7
2020-Jan-25 13:55 010 26.7
2020-Jan-25 13:50 009 26.7
2020-Jan-25 13:45 009 26.7
2020-Jan-25 13:40 009 26.7
2020-Jan-25 13:35 009 26.7
2020-Jan-25 13:30 009 26.7
2020-Jan-25 13:25 26.1
2020-Jan-25 13:20 009 26.7
2020-Jan-25 13:15 009 26.7
2020-Jan-25 13:10 009 26.7
2020-Jan-25 13:05 009 26.7
2020-Jan-25 13:00 009 26.7
2020-Jan-25 12:55 009 26.7
2020-Jan-25 12:50 009 26.7
2020-Jan-25 12:45 009 26.7
2020-Jan-25 12:40 009 26.7
2020-Jan-25 12:35 009 26.7
2020-Jan-25 12:30 009 26.7
2020-Jan-25 12:25 009 26.7
2020-Jan-25 12:20 009 26.7
2020-Jan-25 12:15 009 26.7
2020-Jan-25 12:10 009 26.7
2020-Jan-25 12:05 009 26.7
2020-Jan-25 12:00 009 26.7
2020-Jan-25 11:55 021 0 gusting 4 26.7
2020-Jan-25 11:50 009 26.7
2020-Jan-25 11:45 009 26.7
2020-Jan-25 11:40 009 26.7
2020-Jan-25 11:35 298 26.7
2020-Jan-25 11:30 298 26.7
2020-Jan-25 11:25 298 26.7
2020-Jan-25 11:20 298 26.7
2020-Jan-25 11:15 298 26.7
2020-Jan-25 11:10 298 26.7
2020-Jan-25 11:05 298 26.7
2020-Jan-25 11:00 298 26.7
2020-Jan-25 10:55 298 26.7
2020-Jan-25 10:50 298 26.7
2020-Jan-25 10:45 298 26.7
2020-Jan-25 10:40 298 26.7
2020-Jan-25 10:35 298 26.7
2020-Jan-25 10:30 298 26.7
2020-Jan-25 10:25 298 26.7
2020-Jan-25 10:20 298 26.7
2020-Jan-25 10:15 298 26.7
2020-Jan-25 10:10 298 26.7
2020-Jan-25 10:05 298 26.7
2020-Jan-25 10:00 298 26.7
2020-Jan-25 09:55 298 26.7
2020-Jan-25 09:50 298 26.7
2020-Jan-25 09:45 298 26.7
2020-Jan-25 09:40 298 26.7
2020-Jan-25 09:35 298 26.7
2020-Jan-25 09:30 298 26.7
2020-Jan-25 09:25 298 26.7
2020-Jan-25 09:20 298 26.7
2020-Jan-25 09:15 298 26.7
2020-Jan-25 09:10 298 26.7
2020-Jan-25 09:05 298 26.7
2020-Jan-25 09:00 298 26.7
2020-Jan-25 08:55 298 26.7
2020-Jan-25 08:50 298 26.7
2020-Jan-25 08:45 298 0 27.2
2020-Jan-25 08:40 318 27.2
2020-Jan-25 08:35 318 1 27.2
2020-Jan-25 08:30 318 27.2
2020-Jan-25 08:25 318 1 gusting 0 27.2
2020-Jan-25 08:20 312 27.2
2020-Jan-25 08:15 313 27.2
2020-Jan-25 08:10 312 27.2
2020-Jan-25 08:05 313 27.2
2020-Jan-25 08:00 312 27.2
2020-Jan-25 07:55 313 27.2
2020-Jan-25 07:50 312 27.2
2020-Jan-25 07:45 313 27.2
2020-Jan-25 07:40 312 27.2
2020-Jan-25 07:35 312 1 27.2
2020-Jan-25 07:30 312 1 27.2
2020-Jan-25 07:25 312 0 27.2
2020-Jan-25 07:20 312 0 27.2
2020-Jan-25 07:15 296 2 27.8
2020-Jan-25 07:10 318 0 gusting 0 27.8
2020-Jan-25 07:05 296 3 gusting 0 27.8
2020-Jan-25 07:00 302 3 gusting 0 27.8
2020-Jan-25 06:55 300 1 gusting 0 27.8
2020-Jan-25 06:50 005 4 27.8
2020-Jan-25 06:45 317 0 27.8
2020-Jan-25 06:40 316 0 28.3
2020-Jan-25 06:35 005 28.3
2020-Jan-25 06:22 066 2 gusting 7 28.3
2020-Jan-25 06:13 077 1 gusting 6 28.3
2020-Jan-25 06:04 055 2 gusting 6 28.3
2020-Jan-25 05:55 056 1 gusting 6 28.3
2020-Jan-25 05:46 044 1 gusting 5 28.3
2020-Jan-25 05:37 066 3 gusting 8 28.3
2020-Jan-25 05:28 055 1 gusting 6 28.3
2020-Jan-25 05:19 055 2 gusting 6 28.3
2020-Jan-25 05:10 052 2 gusting 8 28.3
2020-Jan-25 05:01 062 3 gusting 9 28.3
2020-Jan-25 04:52 064 1 gusting 8 28.3
2020-Jan-25 04:43 069 1 gusting 6 28.3
2020-Jan-25 04:34 053 1 gusting 6 28.3
2020-Jan-25 04:25 022 1 gusting 7 28.3
2020-Jan-25 04:16 044 2 gusting 6 28.3
2020-Jan-25 04:07 035 1 gusting 5 28.3
2020-Jan-25 03:58 051 2 gusting 7 28.9
2020-Jan-25 03:49 037 2 gusting 9 28.9
2020-Jan-25 03:40 081 2 gusting 9 29.4
2020-Jan-25 03:31 046 1 gusting 6 29.4
2020-Jan-25 03:22 055 3 gusting 10 29.4
2020-Jan-25 03:13 040 3 gusting 10 30.0
2020-Jan-25 03:04 058 2 gusting 9 30.6
2020-Jan-25 02:55 050 3 gusting 9 30.6
2020-Jan-25 02:46 056 3 gusting 12 31.1
2020-Jan-25 02:37 052 3 gusting 12 31.7
2020-Jan-25 02:28 042 4 gusting 10 32.2
2020-Jan-25 02:19 063 4 gusting 10 32.2
2020-Jan-25 02:10 042 4 gusting 13 31.7
2020-Jan-25 02:01 027 4 gusting 12 32.2
2020-Jan-25 01:52 043 3 gusting 12 32.2
2020-Jan-25 01:43 045 3 gusting 14 32.2
2020-Jan-25 01:34 065 3 gusting 10 31.7
2020-Jan-25 01:25 034 4 gusting 9 31.7
2020-Jan-25 01:16 031 4 gusting 9 31.7
2020-Jan-25 01:07 048 3 gusting 11 31.1
2020-Jan-25 00:58 037 3 gusting 11 31.1
2020-Jan-25 00:49 054 2 gusting 8 30.6
2020-Jan-25 00:40 044 3 gusting 7 30.6
2020-Jan-25 00:31 042 3 gusting 8 30.6
2020-Jan-25 00:22 063 2 gusting 8 31.1
2020-Jan-25 00:13 044 1 gusting 6 30.0
2020-Jan-25 00:04 005 1 gusting 3 28.9
2020-Jan-24 23:55 236 1 gusting 3 28.9
2020-Jan-24 23:46 226 0 gusting 3 28.9
2020-Jan-24 23:37 206 0 gusting 2 28.9
2020-Jan-24 23:28 292 0 gusting 1 28.9
2020-Jan-24 23:19 293 0 gusting 3 28.3
2020-Jan-24 23:10 292 1 gusting 3 28.3
2020-Jan-24 23:01 290 1 gusting 5 28.9
2020-Jan-24 22:52 296 0 gusting 2 28.9
2020-Jan-24 22:43 272 1 gusting 3 28.9
2020-Jan-24 22:34 012 1 gusting 5 28.9
2020-Jan-24 22:25 003 1 gusting 4 28.3
2020-Jan-24 22:16 032 0 gusting 4 27.8
2020-Jan-24 22:07 018 1 gusting 2 27.2
2020-Jan-24 21:58 350 0 gusting 3 27.2
2020-Jan-24 21:49 256 0 gusting 2 26.7
2020-Jan-24 21:40 256 0 gusting 1 26.7
2020-Jan-24 21:31 256 0 gusting 1 26.7
2020-Jan-24 21:22 256 0 gusting 2 26.1
2020-Jan-24 21:13 26.1
2020-Jan-24 21:04 256 0 gusting 2 26.1
2020-Jan-24 20:55 256 0 gusting 2 26.1
2020-Jan-24 20:46 256 1 gusting 2 25.6
2020-Jan-24 20:37 254 1 gusting 3 25.6
2020-Jan-24 20:28 274 1 gusting 2 25.6
2020-Jan-24 20:19 309 1 gusting 2 25.6
2020-Jan-24 20:10 25.6
2020-Jan-24 20:01 327 0 gusting 0 25.6
2020-Jan-24 19:52 25.6
2020-Jan-24 19:43 327 0 gusting 1 25.6
2020-Jan-24 19:34 25.6
2020-Jan-24 19:25 327 0 gusting 2 25.0
2020-Jan-24 19:16 327 0 gusting 1 25.0
2020-Jan-24 19:07 326 0 gusting 2 25.0
2020-Jan-24 18:58 325 1 gusting 2 25.6
2020-Jan-24 18:49 325 0 gusting 1 25.6
2020-Jan-24 18:40 325 0 gusting 1 25.6
2020-Jan-24 18:31 325 0 gusting 1 25.6
2020-Jan-24 18:22 325 0 gusting 2 25.6
2020-Jan-24 18:13 25.6
2020-Jan-24 18:04 25.6
2020-Jan-24 17:55 325 0 gusting 1 25.6
2020-Jan-24 17:46 25.6
2020-Jan-24 17:37 325 0 gusting 2 25.6
2020-Jan-24 17:28 325 0 gusting 2 25.6
2020-Jan-24 17:19 325 0 gusting 1 26.1
2020-Jan-24 17:10 26.1
2020-Jan-24 17:01 341 0 gusting 4 26.1
2020-Jan-24 16:52 039 0 gusting 4 26.7
2020-Jan-24 16:43 051 0 gusting 3 26.7
2020-Jan-24 16:34 002 1 gusting 6 26.7
2020-Jan-24 16:25 044 1 gusting 4 26.7
2020-Jan-24 16:16 028 1 gusting 6 26.7
2020-Jan-24 16:07 064 1 gusting 3 26.7
2020-Jan-24 15:58 014 1 gusting 6 26.7
2020-Jan-24 15:49 043 1 gusting 5 26.7
2020-Jan-24 15:40 008 1 gusting 4 26.7
2020-Jan-24 15:31 036 1 gusting 5 26.7
2020-Jan-24 15:22 056 0 gusting 4 26.7
2020-Jan-24 15:13 062 1 gusting 4 26.7
2020-Jan-24 15:04 050 1 gusting 4 26.7
2020-Jan-24 14:55 041 1 gusting 5 26.7
2020-Jan-24 14:46 040 1 gusting 6 26.7
2020-Jan-24 14:37 042 0 gusting 3 26.7
2020-Jan-24 14:28 069 0 gusting 4 26.7
2020-Jan-24 14:19 352 0 gusting 2 26.7
2020-Jan-24 14:10 026 1 gusting 5 26.7
2020-Jan-24 14:01 014 0 gusting 3 26.7
2020-Jan-24 13:52 029 1 gusting 4 27.2
2020-Jan-24 13:43 037 1 gusting 4 27.2
2020-Jan-24 13:34 020 1 gusting 5 27.2
2020-Jan-24 13:25 027 1 gusting 5 27.2
2020-Jan-24 13:16 027 1 gusting 6 27.2
2020-Jan-24 13:07 034 1 gusting 5 27.2
2020-Jan-24 12:58 048 1 gusting 5 27.2
2020-Jan-24 12:49 026 1 gusting 6 27.2
2020-Jan-24 12:40 025 1 gusting 6 27.2
2020-Jan-24 12:31 059 0 gusting 5 27.2
2020-Jan-24 12:22 047 1 gusting 7 27.2
2020-Jan-24 12:13 048 2 gusting 6 27.2
2020-Jan-24 12:04 021 1 gusting 6 27.2
2020-Jan-24 11:55 026 1 gusting 10 27.2
2020-Jan-24 11:46 046 2 gusting 10 27.2
2020-Jan-24 11:37 024 1 gusting 10 27.2
2020-Jan-24 11:28 036 2 gusting 8 27.2
2020-Jan-24 11:19 053 0 gusting 5 27.2
2020-Jan-24 11:10 050 1 gusting 5 27.2
2020-Jan-24 11:01 034 2 gusting 8 27.2
2020-Jan-24 10:52 035 2 gusting 6 27.8
2020-Jan-24 10:43 044 2 gusting 6 27.8
2020-Jan-24 10:34 030 2 gusting 9 27.8
2020-Jan-24 10:25 031 1 gusting 8 27.8
2020-Jan-24 10:16 014 3 gusting 12 27.8
2020-Jan-24 10:07 010 3 gusting 8 27.8
2020-Jan-24 09:58 034 2 gusting 10 27.8
2020-Jan-24 09:49 023 2 gusting 10 27.8
2020-Jan-24 09:31 035 3 gusting 10 28.3
2020-Jan-24 09:22 034 2 gusting 6 28.3
2020-Jan-24 09:13 051 2 gusting 6 28.3
2020-Jan-24 09:04 059 2 gusting 7 28.3
2020-Jan-24 08:55 050 2 gusting 9 28.3
2020-Jan-24 08:46 071 1 gusting 6 28.3
2020-Jan-24 08:37 030 2 gusting 7 28.9
2020-Jan-24 08:28 049 2 gusting 6 28.9
2020-Jan-24 08:19 034 2 gusting 7 28.9
2020-Jan-24 08:10 030 1 gusting 5 28.9
2020-Jan-24 08:01 041 2 gusting 8 28.9
2020-Jan-24 07:52 031 3 gusting 11 28.9
2020-Jan-24 07:43 039 2 gusting 8 29.4
2020-Jan-24 07:34 030 3 gusting 9 29.4
2020-Jan-24 07:25 021 3 gusting 10 29.4
2020-Jan-24 07:16 032 4 gusting 9 30.0
2020-Jan-24 07:07 026 3 gusting 12 30.0